Skip Page Navigation
NASA JPL Caltech
NASA Logo - Jet Propulsion Laboratory + View the NASA Portal
+ Center for Near-Earth Object Studies
JPL Home Earth Solar System Stars & Galaxies Technology
JPL Solar System Dynamics
BODIES ORBITS EPHEMERIDES TOOLS PHYSICAL DATA DISCOVERY FAQ SITE MAP
JPL Small-Body Database Browser
Search: [ help ]  
1794 Finsen (1970 GA)
Classification: Main-belt Asteroid          SPK-ID: 2001794
Ephemeris | Orbit Diagram | Orbital Elements | Mission Design | Physical Parameters | Discovery Circumstances | Close-Approach Data ]

[ show orbit diagram ]
Orbital Elements at Epoch 2459000.5 (2020-May-31.0) TDB
Reference: JPL 36 (heliocentric ecliptic J2000)
 Element Value Uncertainty (1-sigma)   Units 
e .1509892594075774 3.5859e-08  
a 3.131138980667546 1.3429e-08 au
q 2.658370624874356 1.131e-07 au
i 14.57895342451886 4.4665e-06 deg
node 221.061837841761 1.3826e-05 deg
peri 341.2045503409547 1.9496e-05 deg
M 34.43794940487596 1.2629e-05 deg
tp 2458806.908302868029
(2019-Nov-19.40830287)
7.1318e-05 TDB
period 2023.727085145259
5.54
1.3019e-05
3.564e-08
d
yr
n .1778895991670537 1.1444e-09 deg/d
Q 3.603907336460736 1.5457e-08 au
  Orbit Determination Parameters
   # obs. used (total)      2731  
   data-arc span      25452 days (69.68 yr)  
   first obs. used      1950-10-05  
   last obs. used      2020-06-11  
   planetary ephem.      DE431  
   SB-pert. ephem.      SB431-N16  
   condition code      0  
   norm. resid. RMS      .45964  
   source      ORB  
   producer      Otto Matic  
   solution date      2020-Jun-23 15:36:45  

Additional Information
 Earth MOID = 1.65824 au 
 Jupiter MOID = 1.39673 au 
 T_jup = 3.146 
[ show covariance matrix ]

Ephemeris | Orbit Diagram | Orbital Elements | Mission Design | Physical Parameters | Discovery Circumstances | Close-Approach Data ]

Physical Parameter Table
Parameter Symbol Value Units Sigma Reference Notes
absolute magnitude H 11.0   n/a MPO473788 IRAS observations used: 5
diameter diameter 38.050 km 0.283 urn:nasa:pds:neowise_diameters_albedos::2.0[mainbelt] (http://adsabs.harvard.edu/abs/2014ApJ...791..121M)  
rotation period rot_per 12.346 h n/a LCDB (Rev. 2019-August); Warner et al., 2009 Result based on less than full coverage, so that the period may be wrong by 30 percent or so.
Published Reference List:
[Waszczak, A.; Chang, C.-K.; Ofeck, E.O.; Laher, F.; et al. (2015) Astron. J. 150, A75.]
[Hills, K. (2016) Minor Planet Bull. 43, 5-6.]
geometric albedo albedo 0.046   0.006 urn:nasa:pds:neowise_diameters_albedos::2.0[mainbelt] (http://adsabs.harvard.edu/abs/2014ApJ...791..121M)  
B-V BV 0.695   0.022 EAR-A-5-DDR-UBV-MEAN-VALUES-V1.2 #obs=1; phase=5.97 deg.
U-B UB 0.312   0.034 EAR-A-5-DDR-UBV-MEAN-VALUES-V1.2 #obs=1; phase=5.97 deg.
Tholen spectral type spec_T C   n/a EAR-A-5-DDR-TAXONOMY-V4.0 used 7 color indices

1794 Finsen (1970 GA)          Discovered 1970-Apr-07 by Bruwer, J. A. at Hartbeespoort
Reference: DISCOVERY.DBLast Updated: 2003-08-29

[ show close-approach data ]
Alternate Designations
 1970 GA = 1937 JR = 1948 GK = 1950 TJ = 1950 TS2 = 1951 XL = 1951 YJ = 1962 WX = 1965 MC 
Ephemeris | Orbit Diagram | Orbital Elements | Mission Design | Physical Parameters | Discovery Circumstances | Close-Approach Data ]
ABOUT SSD CREDITS/AWARDS PRIVACY/COPYRIGHT GLOSSARY LINKS
FirstGov 2020-Aug-06 11:01 UT
(server date/time)  
NASA Home Page
Site Manager:   Ryan S. Park
Webmaster  Alan B. Chamberlin